Flag for Germany Weather past 2 weeks in Bonn, North Rhine-Westphalia, Germany

Now
44 °F

Overcast.


Feels Like: 42 °F
Forecast: 36 / 62 °F
Wind: 3 mph from Southeast

Location: Bonn-Hangelar

Current Time: Apr 19, 2015 at 10:44:46 AM

Latest Report: Apr 19, 2015 at 10:00 AM


Visibility: 7 mi

Pressure: 30.19 "Hg

Humidity: 81%

Dew point: 38 °F

Location of BonnLocation

Historic Weather in Bonn — Graph

°F

Bonn temperature yesterday

Maximum temperature yesterday: 54 °F (at 5:00 PM)
Minimum temperature yesterday: 36 °F (at 5:00 AM)
Average temperature yesterday: 46 °F

Past Weeks' High & Low Weather Summary

 TemperatureHumidityPressure
High72 °F (Apr 15, 5:00 PM)98% (Apr 4, 12:00 PM)30.65 "Hg (Apr 4, 12:00 PM)
Low31 °F (Apr 5, 8:00 AM)31% (Apr 10, 3:00 PM)29.93 "Hg (Apr 16, 6:00 PM)
Average49 °F69%30.27 "Hg
* Reported Apr 4 9:00 AM — Apr 19 9:00 AM, Bonn, Weather by CustomWeather, © 2015

Note: Actual official high and low records may vary slightly from our data, if they occured in-between our weather recording intervals... More about our weather records

Advertising

Bonn weather history for previous 24 hours

 ConditionsComfort  
Time TempWeatherWind HumidityBarometerVisibility
9:00 AM
Sun, Apr 19
38 °FLow clouds.2 mph94%30.21 "Hg6 mi
8:00 AM36 °FOvercast.2 mph92%30.21 "Hg19 mi
7:00 AM35 °FScattered clouds.1 mph91%30.21 "Hg12 mi
6:00 AM35 °FPassing clouds.2 mph87%30.22 "Hg16 mi
5:00 AM37 °FClear.2 mph83%30.23 "Hg12 mi
4:00 AM40 °FClear.2 mph77%30.23 "Hg14 mi
3:00 AM40 °FClear.2 mph71%30.25 "Hg14 mi
2:00 AM43 °FClear.2 mph60%30.27 "Hg16 mi
1:00 AM44 °FClear.2 mph60%30.27 "Hg18 mi
12:00 AM44 °FPassing clouds.2 mph60%30.29 "Hg16 mi
11:00 PM
Sat, Apr 18
47 °FClear.3 mph51%30.28 "Hg19 mi
10:00 PM49 °FClear.2 mph46%30.28 "Hg25 mi
9:00 PM49 °FClear.2 mph44%30.27 "Hg28 mi
8:00 PM52 °FSunny.5 mph42%30.26 "Hg25 mi
7:00 PM53 °FSunny.5 mph42%30.26 "Hg25 mi
6:00 PM53 °FSunny.5 mph38%30.27 "Hg19 mi
5:00 PM54 °FSunny.6 mph40%30.28 "Hg19 mi
4:00 PM53 °FSunny.6 mph43%30.30 "Hg15 mi
3:00 PM52 °FPassing clouds.7 mph44%30.31 "Hg14 mi
2:00 PM51 °FSunny.7 mph42%30.32 "Hg13 mi
1:00 PM51 °FPassing clouds.7 mph45%30.33 "Hg22 mi
12:00 PM50 °FPassing clouds.7 mph56%30.34 "Hg12 mi
11:00 AM47 °FSunny.7 mph62%30.33 "Hg12 mi
10:00 AM45 °FSunny.3 mph75%30.34 "Hg16 mi
Weather by CustomWeather, © 2015

See weather overviewHow to use our weather pages